Year,Month,Day,Hour,Minute,Value (Times are PST for temperature in C)
2008,02,21,00,00,0.20
2008,02,21,00,01,0.20
2008,02,21,00,02,0.20
2008,02,21,00,03,0.20
2008,02,21,00,04,0.20
2008,02,21,00,05,0.20
2008,02,21,00,06,0.20
2008,02,21,00,07,0.20
2008,02,21,00,08,0.10
2008,02,21,00,09,0.10
2008,02,21,00,10,0.10
2008,02,21,00,11,0.10
2008,02,21,00,12,0.10
2008,02,21,01,02,-0.30
2008,02,21,01,03,-0.30
2008,02,21,01,04,-0.30
2008,02,21,01,05,-0.30
2008,02,21,01,06,-0.30
2008,02,21,01,07,-0.30
2008,02,21,01,08,-0.30
2008,02,21,01,09,-0.30
2008,02,21,01,10,-0.30
2008,02,21,01,11,-0.30
2008,02,21,01,12,-0.30
2008,02,21,01,13,-0.30
2008,02,21,01,14,-0.30
2008,02,21,01,15,-0.30
2008,02,21,01,16,-0.30
2008,02,21,01,17,-0.30
2008,02,21,01,18,-0.30
2008,02,21,01,19,-0.30
2008,02,21,01,20,-0.20
2008,02,21,01,21,-0.20
2008,02,21,01,22,-0.20
2008,02,21,01,23,-0.20
2008,02,21,01,24,-0.20
2008,02,21,01,25,-0.20
2008,02,21,01,26,-0.20
2008,02,21,01,27,-0.20
2008,02,21,01,28,-0.20
2008,02,21,01,29,-0.20
2008,02,21,01,30,-0.20
2008,02,21,01,31,-0.30
2008,02,21,01,32,-0.30
2008,02,21,01,33,-0.30
2008,02,21,01,34,-0.30
2008,02,21,01,35,-0.30
2008,02,21,01,36,-0.30
2008,02,21,01,37,-0.30
2008,02,21,01,38,-0.30
2008,02,21,01,39,-0.30
2008,02,21,01,40,-0.30
2008,02,21,01,41,-0.30
2008,02,21,01,42,-0.30
2008,02,21,01,43,-0.20
2008,02,21,01,44,-0.20
2008,02,21,01,45,-0.20
2008,02,21,01,46,-0.20
2008,02,21,01,47,-0.20
2008,02,21,01,48,-0.20
2008,02,21,01,49,-0.20
2008,02,21,01,50,-0.20
2008,02,21,01,51,-0.20
2008,02,21,01,52,-0.20
2008,02,21,01,53,-0.20
2008,02,21,01,54,-0.20
2008,02,21,01,55,-0.20
2008,02,21,01,56,-0.20
2008,02,21,01,57,-0.20
2008,02,21,01,58,-0.20
2008,02,21,01,59,-0.20
2008,02,21,02,00,-0.20
2008,02,21,02,01,-0.20
2008,02,21,02,02,-0.20
2008,02,21,02,03,-0.20
2008,02,21,02,04,-0.20
2008,02,21,02,05,-0.20
2008,02,21,02,06,-0.20
2008,02,21,02,07,-0.20
2008,02,21,02,08,-0.20
2008,02,21,02,09,-0.20
2008,02,21,02,10,-0.20
2008,02,21,02,11,-0.10
2008,02,21,02,12,-0.10
2008,02,21,02,13,-0.10
2008,02,21,02,14,-0.10
2008,02,21,02,15,-0.10
2008,02,21,02,16,-0.20
2008,02,21,02,17,-0.20
2008,02,21,02,18,-0.20
2008,02,21,02,19,-0.20
2008,02,21,02,20,-0.20
2008,02,21,02,21,-0.20
2008,02,21,02,22,-0.20
2008,02,21,02,23,-0.20
2008,02,21,02,24,-0.20
2008,02,21,02,25,-0.20
2008,02,21,02,26,-0.20
2008,02,21,02,27,-0.20
2008,02,21,02,28,-0.20
2008,02,21,02,29,-0.20
2008,02,21,02,30,-0.20
2008,02,21,02,31,-0.20
2008,02,21,02,32,-0.20
2008,02,21,02,33,-0.20
2008,02,21,02,34,-0.20
2008,02,21,02,35,-0.20
2008,02,21,02,36,-0.20
2008,02,21,02,37,-0.30
2008,02,21,02,38,-0.30
2008,02,21,02,39,-0.30
2008,02,21,02,40,-0.30
2008,02,21,02,41,-0.30
2008,02,21,02,42,-0.30
2008,02,21,02,43,-0.30
2008,02,21,02,44,-0.30
2008,02,21,02,45,-0.30
2008,02,21,02,46,-0.30
2008,02,21,02,47,-0.30
2008,02,21,02,48,-0.30
2008,02,21,02,49,-0.30
2008,02,21,02,50,-0.30
2008,02,21,02,51,-0.30
2008,02,21,02,52,-0.30
2008,02,21,02,53,-0.30
2008,02,21,02,54,-0.20
2008,02,21,02,55,-0.30
2008,02,21,02,56,-0.30
2008,02,21,02,57,-0.30
2008,02,21,02,58,-0.30
2008,02,21,02,59,-0.30
2008,02,21,03,00,-0.30
2008,02,21,03,01,-0.30
2008,02,21,03,02,-0.30
2008,02,21,03,03,-0.30
2008,02,21,03,04,-0.30
2008,02,21,03,05,-0.30
2008,02,21,03,06,-0.30
2008,02,21,03,07,-0.30
2008,02,21,03,08,-0.30
2008,02,21,03,09,-0.30
2008,02,21,03,10,-0.20
2008,02,21,03,11,-0.20
2008,02,21,03,12,-0.20
2008,02,21,03,13,-0.20
2008,02,21,03,14,-0.20
2008,02,21,03,15,-0.20
2008,02,21,03,16,-0.30
2008,02,21,03,17,-0.30
2008,02,21,03,18,-0.30
2008,02,21,03,19,-0.30
2008,02,21,03,20,-0.30
2008,02,21,03,21,-0.30
2008,02,21,03,22,-0.30
2008,02,21,03,23,-0.30
2008,02,21,03,24,-0.30
2008,02,21,03,25,-0.30
2008,02,21,03,26,-0.30
2008,02,21,03,27,-0.30
2008,02,21,03,28,-0.30
2008,02,21,03,29,-0.30
2008,02,21,03,30,-0.30
2008,02,21,03,31,-0.30
2008,02,21,03,32,-0.30
2008,02,21,03,33,-0.30
2008,02,21,03,34,-0.30
2008,02,21,03,35,-0.30
2008,02,21,03,36,-0.30
2008,02,21,03,37,-0.30
2008,02,21,03,38,-0.30
2008,02,21,03,39,-0.30
2008,02,21,03,40,-0.30
2008,02,21,03,41,-0.30
2008,02,21,03,42,-0.30
2008,02,21,03,43,-0.30
2008,02,21,03,44,-0.40
2008,02,21,03,45,-0.40
2008,02,21,03,46,-0.40
2008,02,21,03,47,-0.40
2008,02,21,03,48,-0.40
2008,02,21,03,49,-0.40
2008,02,21,03,50,-0.40
2008,02,21,03,51,-0.40
2008,02,21,03,52,-0.40
2008,02,21,03,53,-0.40
2008,02,21,03,54,-0.40
2008,02,21,03,55,-0.40
2008,02,21,03,56,-0.40
2008,02,21,03,57,-0.50
2008,02,21,03,58,-0.40
2008,02,21,03,59,-0.40
2008,02,21,04,00,-0.40
2008,02,21,04,01,-0.40
2008,02,21,04,02,-0.40
2008,02,21,04,03,-0.40
2008,02,21,04,04,-0.40
2008,02,21,04,05,-0.40
2008,02,21,04,06,-0.40
2008,02,21,04,07,-0.40
2008,02,21,04,08,-0.40
2008,02,21,04,09,-0.40
2008,02,21,04,10,-0.40
2008,02,21,04,11,-0.50
2008,02,21,04,12,-0.50
2008,02,21,04,13,-0.50
2008,02,21,04,14,-0.50
2008,02,21,04,15,-0.50
2008,02,21,04,16,-0.50
2008,02,21,04,17,-0.50
2008,02,21,04,18,-0.50
2008,02,21,04,19,-0.40
2008,02,21,04,20,-0.40
2008,02,21,04,21,-0.40
2008,02,21,04,22,-0.40
2008,02,21,04,23,-0.40
2008,02,21,04,24,-0.40
2008,02,21,04,25,-0.40
2008,02,21,04,26,-0.40
2008,02,21,04,27,-0.50
2008,02,21,04,28,-0.50
2008,02,21,04,29,-0.50
2008,02,21,04,30,-0.50
2008,02,21,04,31,-0.50
2008,02,21,04,32,-0.50
2008,02,21,04,33,-0.50
2008,02,21,04,34,-0.50
2008,02,21,04,35,-0.50
2008,02,21,04,36,-0.60
2008,02,21,04,37,-0.60
2008,02,21,04,38,-0.50
2008,02,21,04,39,-0.50
2008,02,21,04,40,-0.50
2008,02,21,04,41,-0.60
2008,02,21,04,42,-0.60
2008,02,21,04,43,-0.60
2008,02,21,04,44,-0.60
2008,02,21,04,45,-0.60
2008,02,21,04,46,-0.60
2008,02,21,04,47,-0.60
2008,02,21,04,48,-0.60
2008,02,21,04,49,-0.60
2008,02,21,04,50,-0.60
2008,02,21,04,51,-0.60
2008,02,21,04,52,-0.60
2008,02,21,04,53,-0.60
2008,02,21,04,54,-0.60
2008,02,21,04,55,-0.70
2008,02,21,04,56,-0.70
2008,02,21,04,57,-0.70
2008,02,21,04,58,-0.70
2008,02,21,04,59,-0.70
2008,02,21,05,00,-0.70
2008,02,21,05,01,-0.70
2008,02,21,05,02,-0.70
2008,02,21,05,03,-0.70
2008,02,21,05,04,-0.70
2008,02,21,05,05,-0.70
2008,02,21,05,06,-0.80
2008,02,21,05,07,-0.80
2008,02,21,05,08,-0.80
2008,02,21,05,09,-0.80
2008,02,21,05,10,-0.80
2008,02,21,05,11,-0.80
2008,02,21,05,12,-0.80
2008,02,21,05,13,-0.80
2008,02,21,05,14,-0.80
2008,02,21,05,15,-0.80
2008,02,21,05,16,-0.80
2008,02,21,05,17,-0.80
2008,02,21,05,18,-0.80
2008,02,21,05,19,-0.80
2008,02,21,05,20,-0.80
2008,02,21,05,21,-0.80
2008,02,21,05,22,-0.90
2008,02,21,05,23,-0.90
2008,02,21,05,24,-0.90
2008,02,21,05,25,-0.90
2008,02,21,05,26,-0.90
2008,02,21,05,27,-0.90
2008,02,21,05,28,-0.90
2008,02,21,05,29,-0.90
2008,02,21,05,30,-0.90
2008,02,21,05,31,-0.90
2008,02,21,05,32,-0.90
2008,02,21,05,33,-0.90
2008,02,21,05,34,-0.90
2008,02,21,05,35,-0.90
2008,02,21,05,36,-0.90
2008,02,21,05,37,-1.00
2008,02,21,05,38,-1.00
2008,02,21,05,39,-1.00
2008,02,21,05,40,-1.00
2008,02,21,05,41,-1.00
2008,02,21,05,42,-1.00
2008,02,21,05,43,-1.00
2008,02,21,05,44,-1.00
2008,02,21,05,45,-1.00
2008,02,21,05,46,-1.00
2008,02,21,05,47,-1.00
2008,02,21,05,48,-1.00
2008,02,21,05,49,-1.10
2008,02,21,05,50,-1.10
2008,02,21,05,51,-1.10
2008,02,21,05,52,-1.10
2008,02,21,05,53,-1.10
2008,02,21,05,54,-1.10
2008,02,21,05,55,-1.10
2008,02,21,05,56,-1.10
2008,02,21,05,57,-1.10
2008,02,21,05,58,-1.10
2008,02,21,05,59,-1.10
2008,02,21,06,00,-1.10
2008,02,21,06,01,-1.10
2008,02,21,06,02,-1.10
2008,02,21,06,03,-1.10
2008,02,21,06,04,-1.10
2008,02,21,06,05,-1.10
2008,02,21,06,06,-1.10
2008,02,21,06,07,-1.10
2008,02,21,06,08,-1.10
2008,02,21,06,09,-1.10
2008,02,21,06,10,-1.10
2008,02,21,06,11,-1.10
2008,02,21,06,12,-1.10
2008,02,21,06,13,-1.10
2008,02,21,06,14,-1.10
2008,02,21,06,15,-1.10
2008,02,21,06,16,-1.10
2008,02,21,06,17,-1.10
2008,02,21,06,18,-1.10
2008,02,21,06,19,-1.10
2008,02,21,06,20,-1.10
2008,02,21,06,21,-1.10
2008,02,21,06,22,-1.10
2008,02,21,06,23,-1.10
2008,02,21,06,24,-1.10
2008,02,21,06,25,-1.10
2008,02,21,06,26,-1.10
2008,02,21,06,27,-1.10
2008,02,21,06,28,-1.10
2008,02,21,06,29,-1.10
2008,02,21,06,30,-1.10
2008,02,21,06,31,-1.10
2008,02,21,06,32,-1.10
2008,02,21,06,33,-1.10
2008,02,21,06,34,-1.10
2008,02,21,06,35,-1.10
2008,02,21,06,36,-1.10
2008,02,21,06,37,-1.10
2008,02,21,06,38,-1.10
2008,02,21,06,39,-1.10
2008,02,21,06,40,-1.10
2008,02,21,06,41,-1.10
2008,02,21,06,42,-1.10
2008,02,21,06,43,-1.10
2008,02,21,06,44,-1.10
2008,02,21,06,45,-1.10
2008,02,21,06,46,-1.10
2008,02,21,06,47,-1.10
2008,02,21,06,48,-1.10
2008,02,21,06,49,-1.10
2008,02,21,06,50,-1.10
2008,02,21,06,51,-1.10
2008,02,21,06,52,-1.10
2008,02,21,06,53,-1.10
2008,02,21,06,54,-1.10
2008,02,21,06,55,-1.10
2008,02,21,06,56,-1.10
2008,02,21,06,57,-1.00
2008,02,21,06,58,-1.00
2008,02,21,06,59,-1.00
2008,02,21,07,00,-1.00
2008,02,21,07,01,-0.90
2008,02,21,07,02,-0.90
2008,02,21,07,03,-0.90
2008,02,21,07,04,-0.90
2008,02,21,07,05,-0.80
2008,02,21,07,06,-0.80
2008,02,21,07,07,-0.80
2008,02,21,07,08,-0.80
2008,02,21,07,09,-0.80
2008,02,21,07,10,-0.80
2008,02,21,07,11,-0.80
2008,02,21,07,12,-0.80
2008,02,21,07,13,-0.80
2008,02,21,07,14,-0.80
2008,02,21,07,15,-0.80
2008,02,21,07,16,-0.80
2008,02,21,07,17,-0.80
2008,02,21,07,18,-0.80
2008,02,21,07,19,-0.80
2008,02,21,07,20,-0.80
2008,02,21,07,21,-0.80
2008,02,21,07,22,-0.80
2008,02,21,07,23,-0.80
2008,02,21,07,24,-0.80
2008,02,21,07,25,-0.80
2008,02,21,07,26,-0.70
2008,02,21,07,27,-0.70
2008,02,21,07,28,-0.70
2008,02,21,07,29,-0.70
2008,02,21,07,30,-0.70
2008,02,21,07,31,-0.70
2008,02,21,07,32,-0.70
2008,02,21,07,33,-0.80
2008,02,21,07,34,-0.80
2008,02,21,07,35,-0.80
2008,02,21,07,36,-0.80
2008,02,21,07,37,-0.80
2008,02,21,07,38,-0.80
2008,02,21,07,39,-0.80
2008,02,21,07,40,-0.80
2008,02,21,07,41,-0.80
2008,02,21,07,42,-0.70
2008,02,21,07,43,-0.70
2008,02,21,07,44,-0.70
2008,02,21,07,45,-0.70
2008,02,21,07,46,-0.70
2008,02,21,07,47,-0.70
2008,02,21,07,48,-0.70
2008,02,21,07,49,-0.70
2008,02,21,07,50,-0.70
2008,02,21,07,51,-0.60
2008,02,21,07,52,-0.60
2008,02,21,07,53,-0.50
2008,02,21,07,54,-0.50
2008,02,21,07,55,-0.40
2008,02,21,07,56,-0.40
2008,02,21,07,57,-0.30
2008,02,21,07,58,-0.30
2008,02,21,07,59,-0.30
2008,02,21,08,00,-0.20
2008,02,21,08,01,-0.20
2008,02,21,08,02,-0.10
2008,02,21,08,03,-0.10
2008,02,21,08,04,0.00
2008,02,21,08,05,0.10
2008,02,21,08,06,0.20
2008,02,21,08,07,0.30
2008,02,21,08,08,0.30
2008,02,21,08,09,0.40
2008,02,21,08,10,0.50
2008,02,21,08,11,0.50
2008,02,21,08,12,0.60
2008,02,21,08,13,0.70
2008,02,21,08,14,0.80
2008,02,21,08,15,0.80
2008,02,21,08,16,0.90
2008,02,21,08,17,0.90
2008,02,21,08,18,1.00
2008,02,21,08,19,1.00
2008,02,21,08,20,1.10
2008,02,21,08,21,1.10
2008,02,21,08,22,1.20
2008,02,21,08,23,1.20
2008,02,21,08,24,1.30
2008,02,21,08,25,1.30
2008,02,21,08,26,1.30
2008,02,21,08,27,1.30
2008,02,21,08,28,1.40
2008,02,21,08,29,1.40
2008,02,21,08,30,1.50
2008,02,21,08,31,1.60
2008,02,21,08,32,1.60
2008,02,21,08,33,1.70
2008,02,21,08,34,1.70
2008,02,21,08,35,1.80
2008,02,21,08,36,1.90
2008,02,21,08,37,2.00
2008,02,21,08,38,2.10
2008,02,21,08,39,2.20
2008,02,21,08,40,2.20
2008,02,21,08,41,2.30
2008,02,21,08,42,2.30
2008,02,21,08,43,2.40
2008,02,21,08,44,2.50
2008,02,21,08,45,2.60
2008,02,21,08,46,2.70
2008,02,21,08,47,2.70
2008,02,21,08,48,2.70
2008,02,21,08,49,2.80
2008,02,21,08,50,2.80
2008,02,21,08,51,2.80
2008,02,21,08,52,2.90
2008,02,21,08,53,3.00
2008,02,21,08,54,3.00
2008,02,21,08,55,3.10
2008,02,21,08,56,3.10
2008,02,21,08,57,3.20
2008,02,21,08,58,3.30
2008,02,21,08,59,3.30
2008,02,21,09,00,3.40
2008,02,21,09,01,3.50
2008,02,21,09,02,3.60
2008,02,21,09,03,3.70
2008,02,21,09,04,3.80
2008,02,21,09,05,3.80
2008,02,21,09,06,3.90
2008,02,21,09,07,4.00
2008,02,21,09,08,4.10
2008,02,21,09,09,4.10
2008,02,21,09,10,4.20
2008,02,21,09,11,4.30
2008,02,21,09,12,4.30
2008,02,21,09,13,4.30
2008,02,21,09,14,4.40
2008,02,21,09,15,4.50
2008,02,21,09,16,4.50
2008,02,21,09,17,4.60
2008,02,21,09,18,4.70
2008,02,21,09,19,4.70
2008,02,21,09,20,4.80
2008,02,21,09,21,4.80
2008,02,21,09,22,4.90
2008,02,21,09,23,4.90
2008,02,21,09,24,5.00
2008,02,21,09,25,5.10
2008,02,21,09,26,5.10
2008,02,21,09,27,5.20
2008,02,21,09,28,5.30
2008,02,21,09,29,5.30
2008,02,21,09,30,5.40
2008,02,21,09,31,5.50
2008,02,21,09,32,5.50
2008,02,21,09,33,5.60
2008,02,21,09,34,5.70
2008,02,21,09,35,5.80
2008,02,21,09,36,5.80
2008,02,21,09,37,5.90
2008,02,21,09,38,5.90
2008,02,21,09,39,6.00
2008,02,21,09,40,6.10
2008,02,21,09,41,6.10
2008,02,21,09,42,6.20
2008,02,21,09,43,6.20
2008,02,21,09,44,6.20
2008,02,21,09,45,6.30
2008,02,21,09,46,6.30
2008,02,21,09,47,6.40
2008,02,21,09,48,6.50
2008,02,21,09,49,6.50
2008,02,21,09,50,6.60
2008,02,21,09,51,6.70
2008,02,21,09,52,6.70
2008,02,21,09,53,6.80
2008,02,21,09,54,6.80
2008,02,21,09,55,6.80
2008,02,21,09,56,6.90
2008,02,21,09,57,6.90
2008,02,21,09,58,7.00
2008,02,21,09,59,7.10
2008,02,21,10,00,7.10
2008,02,21,10,01,7.20
2008,02,21,10,02,7.20
2008,02,21,10,03,7.30
2008,02,21,10,04,7.30
2008,02,21,10,05,7.40
2008,02,21,10,06,7.40
2008,02,21,10,07,7.50
2008,02,21,10,08,7.50
2008,02,21,10,09,7.60
2008,02,21,10,10,7.70
2008,02,21,10,11,7.70
2008,02,21,10,12,7.80
2008,02,21,10,13,7.80
2008,02,21,10,14,7.80
2008,02,21,10,15,7.90
2008,02,21,10,16,7.90
2008,02,21,10,17,7.90
2008,02,21,10,18,8.00
2008,02,21,10,19,8.00
2008,02,21,10,20,7.90
2008,02,21,10,21,7.90
2008,02,21,10,22,7.90
2008,02,21,10,23,7.90
2008,02,21,10,24,8.00
2008,02,21,10,25,8.00
2008,02,21,10,26,8.10
2008,02,21,10,27,8.20
2008,02,21,10,28,8.20
2008,02,21,10,29,8.30
2008,02,21,10,30,8.30
2008,02,21,10,31,8.40
2008,02,21,10,32,8.50
2008,02,21,10,33,8.50
2008,02,21,10,34,8.60
2008,02,21,10,35,8.60
2008,02,21,10,36,8.70
2008,02,21,10,37,8.80
2008,02,21,10,38,8.80
2008,02,21,10,39,8.90
2008,02,21,10,40,8.90
2008,02,21,10,41,9.00
2008,02,21,10,42,9.00
2008,02,21,10,43,9.10
2008,02,21,10,44,9.10
2008,02,21,10,45,9.10
2008,02,21,10,46,9.10
2008,02,21,10,47,9.10
2008,02,21,10,48,9.10
2008,02,21,10,49,9.20
2008,02,21,10,50,9.20
2008,02,21,10,51,9.30
2008,02,21,10,52,9.30
2008,02,21,10,53,9.40
2008,02,21,10,54,9.50
2008,02,21,10,55,9.60
2008,02,21,10,56,9.60
2008,02,21,10,57,9.50
2008,02,21,10,58,9.30
2008,02,21,10,59,9.20
2008,02,21,11,00,9.00
2008,02,21,11,01,8.90
2008,02,21,11,02,8.90
2008,02,21,11,03,8.80
2008,02,21,11,04,8.80
2008,02,21,11,05,8.80
2008,02,21,11,06,8.80
2008,02,21,11,07,8.90
2008,02,21,11,08,9.00
2008,02,21,11,09,9.00
2008,02,21,11,10,9.00
2008,02,21,11,11,9.10
2008,02,21,11,12,9.10
2008,02,21,11,13,9.10
2008,02,21,11,14,9.20
2008,02,21,11,15,9.20
2008,02,21,11,16,9.20
2008,02,21,11,17,9.20
2008,02,21,11,18,9.20
2008,02,21,11,19,9.20
2008,02,21,11,20,9.30
2008,02,21,11,21,9.30
2008,02,21,11,22,9.30
2008,02,21,11,23,9.30
2008,02,21,11,24,9.30
2008,02,21,11,25,9.30
2008,02,21,11,26,9.30
2008,02,21,11,27,9.30
2008,02,21,11,28,9.40
2008,02,21,11,29,9.40
2008,02,21,11,30,9.30
2008,02,21,11,31,9.30
2008,02,21,11,32,9.20
2008,02,21,11,33,9.20
2008,02,21,11,34,9.10
2008,02,21,11,35,9.00
2008,02,21,11,36,9.00
2008,02,21,11,37,9.10
2008,02,21,11,38,9.10
2008,02,21,11,39,9.20
2008,02,21,11,40,9.30
2008,02,21,11,41,9.40
2008,02,21,11,42,9.40
2008,02,21,11,43,9.50
2008,02,21,11,44,9.60
2008,02,21,11,45,9.60
2008,02,21,11,46,9.70
2008,02,21,11,47,9.70
2008,02,21,11,48,9.80
2008,02,21,11,49,9.80
2008,02,21,11,50,9.80
2008,02,21,11,51,9.80
2008,02,21,11,52,9.80
2008,02,21,11,53,9.80
2008,02,21,11,54,9.80
2008,02,21,11,55,9.80
2008,02,21,11,56,9.70
2008,02,21,11,57,9.80
2008,02,21,11,58,9.70
2008,02,21,11,59,9.70
2008,02,21,12,00,9.70
2008,02,21,12,01,9.60
2008,02,21,12,02,9.50
2008,02,21,12,03,9.50
2008,02,21,12,04,9.50
2008,02,21,12,05,9.50
2008,02,21,12,06,9.50
2008,02,21,12,07,9.60
2008,02,21,12,08,9.60
2008,02,21,12,09,9.60
2008,02,21,12,10,9.50
2008,02,21,12,11,9.50
2008,02,21,12,12,9.50
2008,02,21,12,13,9.50
2008,02,21,12,14,9.50
2008,02,21,12,15,9.50
2008,02,21,12,16,9.60
2008,02,21,12,17,9.60
2008,02,21,12,18,9.70
2008,02,21,12,19,9.60
2008,02,21,12,20,9.60
2008,02,21,12,21,9.60
2008,02,21,12,22,9.60
2008,02,21,12,23,9.60
2008,02,21,12,24,9.60
2008,02,21,12,25,9.60
2008,02,21,12,26,9.60
2008,02,21,12,27,9.60
2008,02,21,12,28,9.60
2008,02,21,12,29,9.60
2008,02,21,12,30,9.50
2008,02,21,12,31,9.40
2008,02,21,12,32,9.40
2008,02,21,12,33,9.40
2008,02,21,12,34,9.40
2008,02,21,12,35,9.50
2008,02,21,12,36,9.60
2008,02,21,12,37,9.60
2008,02,21,12,38,9.60
2008,02,21,12,39,9.70
2008,02,21,12,40,9.70
2008,02,21,12,41,9.80
2008,02,21,12,42,9.80
2008,02,21,12,43,9.80
2008,02,21,12,44,9.90
2008,02,21,12,45,9.90
2008,02,21,12,46,9.90
2008,02,21,12,47,10.00
2008,02,21,12,48,10.00
2008,02,21,12,49,10.00
2008,02,21,12,50,10.00
2008,02,21,12,51,9.90
2008,02,21,12,52,9.90
2008,02,21,12,53,10.00
2008,02,21,12,54,10.00
2008,02,21,12,55,10.10
2008,02,21,12,56,10.10
2008,02,21,12,57,10.20
2008,02,21,12,58,10.20
2008,02,21,12,59,10.20
2008,02,21,13,00,10.20
2008,02,21,13,01,10.20
2008,02,21,13,02,10.10
2008,02,21,13,03,10.10
2008,02,21,13,04,10.10
2008,02,21,13,05,10.10
2008,02,21,13,06,10.10
2008,02,21,13,07,10.10
2008,02,21,13,08,10.10
2008,02,21,13,09,10.10
2008,02,21,13,10,10.10
2008,02,21,13,11,10.10
2008,02,21,13,12,10.20
2008,02,21,13,13,10.10
2008,02,21,13,14,10.10
2008,02,21,13,15,10.00
2008,02,21,13,16,10.00
2008,02,21,13,17,9.90
2008,02,21,13,18,9.90
2008,02,21,13,19,9.90
2008,02,21,13,20,9.80
2008,02,21,13,21,9.80
2008,02,21,13,22,9.80
2008,02,21,13,23,9.80
2008,02,21,13,24,9.80
2008,02,21,13,25,9.80
2008,02,21,13,26,9.80
2008,02,21,13,27,9.90
2008,02,21,13,28,9.90
2008,02,21,13,29,10.00
2008,02,21,13,30,10.10
2008,02,21,13,31,10.20
2008,02,21,13,32,10.30
2008,02,21,13,33,10.30
2008,02,21,13,34,10.30
2008,02,21,13,35,10.30
2008,02,21,13,36,10.30
2008,02,21,13,37,10.30
2008,02,21,13,38,10.30
2008,02,21,13,39,10.30
2008,02,21,13,40,10.40
2008,02,21,13,41,10.40
2008,02,21,13,42,10.40
2008,02,21,13,43,10.40
2008,02,21,13,44,10.40
2008,02,21,13,45,10.40
2008,02,21,13,46,10.40
2008,02,21,13,47,10.40
2008,02,21,13,48,10.50
2008,02,21,13,49,10.50
2008,02,21,13,50,10.60
2008,02,21,13,51,10.70
2008,02,21,13,52,10.80
2008,02,21,13,53,10.80
2008,02,21,13,54,10.90
2008,02,21,13,55,11.00
2008,02,21,13,56,11.00
2008,02,21,13,57,11.00
2008,02,21,13,58,11.10
2008,02,21,13,59,11.10
2008,02,21,14,00,11.00
2008,02,21,14,01,10.90
2008,02,21,14,02,10.80
2008,02,21,14,03,10.80
2008,02,21,14,04,10.80
2008,02,21,14,05,10.80
2008,02,21,14,06,10.80
2008,02,21,14,07,10.80
2008,02,21,14,08,10.80
2008,02,21,14,09,10.80
2008,02,21,14,10,10.80
2008,02,21,14,11,10.90
2008,02,21,14,12,11.00
2008,02,21,14,13,11.10
2008,02,21,14,14,11.20
2008,02,21,14,15,11.20
2008,02,21,14,16,11.30
2008,02,21,14,17,11.30
2008,02,21,14,18,11.30
2008,02,21,14,19,11.30
2008,02,21,14,20,11.20
2008,02,21,14,21,11.10
2008,02,21,14,22,11.10
2008,02,21,14,23,11.10
2008,02,21,14,24,11.00
2008,02,21,14,25,11.00
2008,02,21,14,26,11.10
2008,02,21,14,27,11.20
2008,02,21,14,28,11.10
2008,02,21,14,29,11.20
2008,02,21,14,30,11.10
2008,02,21,14,31,11.10
2008,02,21,14,32,11.10
2008,02,21,14,33,11.10
2008,02,21,14,34,11.10
2008,02,21,14,35,11.00
2008,02,21,14,36,10.90
2008,02,21,14,37,10.90
2008,02,21,14,38,10.90
2008,02,21,14,39,10.80
2008,02,21,14,40,10.80
2008,02,21,14,41,10.80
2008,02,21,14,42,10.70
2008,02,21,14,43,10.70
2008,02,21,14,44,10.70
2008,02,21,14,45,10.80
2008,02,21,14,46,10.70
2008,02,21,14,47,10.70
2008,02,21,14,48,10.70
2008,02,21,14,49,10.80
2008,02,21,14,50,10.80
2008,02,21,14,51,10.80
2008,02,21,14,52,10.80
2008,02,21,14,53,10.80
2008,02,21,14,54,10.80
2008,02,21,14,55,10.80
2008,02,21,14,56,10.90
2008,02,21,14,57,10.90
2008,02,21,14,58,10.90
2008,02,21,14,59,10.90
2008,02,21,15,00,10.90
2008,02,21,15,01,10.90
2008,02,21,15,02,10.90
2008,02,21,15,03,10.90
2008,02,21,15,04,10.90
2008,02,21,15,05,10.90
2008,02,21,15,06,10.90
2008,02,21,15,07,10.90
2008,02,21,15,08,11.00
2008,02,21,15,09,10.90
2008,02,21,15,10,10.90
2008,02,21,15,11,10.80
2008,02,21,15,12,10.80
2008,02,21,15,13,10.80
2008,02,21,15,14,10.80
2008,02,21,15,15,10.80
2008,02,21,15,16,10.90
2008,02,21,15,17,10.90
2008,02,21,15,18,11.00
2008,02,21,15,19,11.10
2008,02,21,15,20,11.20
2008,02,21,15,21,11.30
2008,02,21,15,22,11.30
2008,02,21,15,23,11.30
2008,02,21,15,24,11.40
2008,02,21,15,25,11.40
2008,02,21,15,26,11.30
2008,02,21,15,27,11.30
2008,02,21,15,28,11.20
2008,02,21,15,29,11.10
2008,02,21,15,30,11.10
2008,02,21,15,31,11.10
2008,02,21,15,32,11.00
2008,02,21,15,33,11.00
2008,02,21,15,34,11.00
2008,02,21,15,35,11.00
2008,02,21,15,36,10.90
2008,02,21,15,37,10.90
2008,02,21,15,38,10.80
2008,02,21,15,39,10.80
2008,02,21,15,40,10.80
2008,02,21,15,41,10.80
2008,02,21,15,42,10.80
2008,02,21,15,43,10.80
2008,02,21,15,44,10.90
2008,02,21,15,45,10.90
2008,02,21,15,46,10.90
2008,02,21,15,47,10.90
2008,02,21,15,48,10.90
2008,02,21,15,49,10.80
2008,02,21,15,50,10.80
2008,02,21,15,51,10.80
2008,02,21,15,52,10.80
2008,02,21,15,53,10.80
2008,02,21,15,54,10.80
2008,02,21,15,55,10.80
2008,02,21,15,56,10.80
2008,02,21,15,57,10.70
2008,02,21,15,58,10.70
2008,02,21,15,59,10.70
2008,02,21,16,00,10.70
2008,02,21,16,01,10.70
2008,02,21,16,02,10.70
2008,02,21,16,03,10.80
2008,02,21,16,04,10.80
2008,02,21,16,05,10.90
2008,02,21,16,06,10.90
2008,02,21,16,07,10.90
2008,02,21,16,08,10.90
2008,02,21,16,09,10.90
2008,02,21,16,10,10.90
2008,02,21,16,11,10.90
2008,02,21,16,12,10.80
2008,02,21,16,13,10.80
2008,02,21,16,14,10.80
2008,02,21,16,15,10.70
2008,02,21,16,16,10.70
2008,02,21,16,17,10.70
2008,02,21,16,18,10.70
2008,02,21,16,19,10.70
2008,02,21,16,20,10.70
2008,02,21,16,21,10.70
2008,02,21,16,22,10.70
2008,02,21,16,23,10.70
2008,02,21,16,24,10.70
2008,02,21,16,25,10.70
2008,02,21,16,26,10.70
2008,02,21,16,27,10.70
2008,02,21,16,28,10.60
2008,02,21,16,29,10.60
2008,02,21,16,30,10.50
2008,02,21,16,31,10.50
2008,02,21,16,32,10.50
2008,02,21,16,33,10.40
2008,02,21,16,34,10.40
2008,02,21,16,35,10.40
2008,02,21,16,36,10.30
2008,02,21,16,37,10.30
2008,02,21,16,38,10.30
2008,02,21,16,39,10.30
2008,02,21,16,40,10.30
2008,02,21,16,41,10.20
2008,02,21,16,42,10.20
2008,02,21,16,43,10.20
2008,02,21,16,44,10.10
2008,02,21,16,45,10.10
2008,02,21,16,46,10.00
2008,02,21,16,47,10.00
2008,02,21,16,48,9.90
2008,02,21,16,49,9.80
2008,02,21,16,50,9.80
2008,02,21,16,51,9.70
2008,02,21,16,52,9.60
2008,02,21,16,53,9.60
2008,02,21,16,54,9.50
2008,02,21,16,55,9.50
2008,02,21,16,56,9.40
2008,02,21,16,57,9.40
2008,02,21,16,58,9.30
2008,02,21,16,59,9.30
2008,02,21,17,00,9.20
2008,02,21,17,01,9.20
2008,02,21,17,02,9.20
2008,02,21,17,03,9.10
2008,02,21,17,04,9.10
2008,02,21,17,05,9.10
2008,02,21,17,06,9.00
2008,02,21,17,07,9.00
2008,02,21,17,08,9.00
2008,02,21,17,09,9.00
2008,02,21,17,10,8.90
2008,02,21,17,11,8.90
2008,02,21,17,12,8.90
2008,02,21,17,13,8.90
2008,02,21,17,14,8.80
2008,02,21,17,15,8.80
2008,02,21,17,16,8.80
2008,02,21,17,17,8.80
2008,02,21,17,18,8.80
2008,02,21,17,19,8.80
2008,02,21,17,20,8.70
2008,02,21,17,21,8.70
2008,02,21,17,22,8.70
2008,02,21,17,23,8.70
2008,02,21,17,24,8.60
2008,02,21,17,25,8.60
2008,02,21,17,26,8.60
2008,02,21,17,27,8.50
2008,02,21,17,28,8.50
2008,02,21,17,29,8.40
2008,02,21,17,30,8.40
2008,02,21,17,31,8.40
2008,02,21,17,32,8.30
2008,02,21,17,33,8.30
2008,02,21,17,34,8.20
2008,02,21,17,35,8.20
2008,02,21,17,36,8.20
2008,02,21,17,37,8.10
2008,02,21,17,38,8.10
2008,02,21,17,39,8.00
2008,02,21,17,40,7.90
2008,02,21,17,41,7.90
2008,02,21,17,42,7.80
2008,02,21,17,43,7.70
2008,02,21,17,44,7.70
2008,02,21,17,45,7.60
2008,02,21,17,46,7.50
2008,02,21,17,47,7.50
2008,02,21,17,48,7.40
2008,02,21,17,49,7.40
2008,02,21,17,50,7.30
2008,02,21,17,51,7.30
2008,02,21,17,52,7.20
2008,02,21,17,53,7.20
2008,02,21,17,54,7.20
2008,02,21,17,55,7.10
2008,02,21,17,56,7.10
2008,02,21,17,57,7.00
2008,02,21,17,58,6.90
2008,02,21,17,59,6.90
2008,02,21,18,00,6.90
2008,02,21,18,01,6.80
2008,02,21,18,02,6.80
2008,02,21,18,03,6.70
2008,02,21,18,04,6.70
2008,02,21,18,05,6.70
2008,02,21,18,06,6.60
2008,02,21,18,07,6.60
2008,02,21,18,08,6.50
2008,02,21,18,09,6.50
2008,02,21,18,10,6.40
2008,02,21,18,11,6.40
2008,02,21,18,12,6.30
2008,02,21,18,13,6.30
2008,02,21,18,14,6.20
2008,02,21,18,15,6.20
2008,02,21,18,16,6.20
2008,02,21,18,17,6.10
2008,02,21,18,18,6.10
2008,02,21,18,19,6.00
2008,02,21,18,20,6.00
2008,02,21,18,21,5.90
2008,02,21,18,22,5.90
2008,02,21,18,23,5.80
2008,02,21,18,24,5.80
2008,02,21,18,25,5.80
2008,02,21,18,26,5.70